Location: Aldenham
(51.6667°N, 0.3500°W)
Time: 15:42:19
(UTC+00:00)

Transit 2A Rocket - Pass Details

Date: 23 February 2026
Orbit: 583 x 900 km, 66.7° (Epoch: 10 March)

Event Time Altitude Azimuth Distance (km) Brightness Sun altitude
Rises 21:52:31 0° 320° (NW) 3,435 9.3 -38.9°
Reaches altitude 10° 21:55:13 10° 327° (NNW) 2,455 8.3 -39.2°
Enters shadow 21:57:18 21° 338° (NNW) 1,751 7.3 -39.4°
